{"data":{"norad_id":63589,"intl_designator":"2025-076W","name":"STARLINK-33788","alt_names":[],"object_type":"PAYLOAD","status":"ACTIVE","operator":null,"country":"US","launch_date":"2025-04-14","launch_site_code":"AFETR","launch_vehicle":null,"mission":null,"orbit_class":"UNKNOWN","rcs_meters":null,"size_class":null,"mass_kg":null,"dimensions":null,"purposes":["comms"],"wikipedia_slug":null,"has_3d_model":false,"image_url":null,"decayed_at":null,"tle_current":{"epoch":"2026-05-24T15:24:45.185760Z","epoch_age_seconds":109105,"freshness":"FRESH","line1":"1 63589U 25076W   26144.64218965  .00018822  00000+0  69201-3 0  9990","line2":"2 63589  42.9995 252.9920 0001110 281.4425  78.6302 15.27567665 63442","mean_motion":15.27567665,"eccentricity":0.000111,"inclination_deg":42.9995,"raan_deg":252.992,"arg_perigee_deg":281.4425,"mean_anomaly_deg":78.6302,"bstar":0.00069201,"rev_number":6344,"period_min":94.267509910928,"perigee_km":482.32443595917,"apogee_km":483.84762747221,"semimajor_km":6861.2230317157,"source":"CELESTRAK","updated_at":"2026-05-25T13:38:20.050062Z"}}}